Location: Newark
(43.4306°N, 0.3089°E)
Time: 04:35:57
(UTC+00:00)

Vanguard 3 - Visible Passes

Search period start: 21 August 2019 00:00
Search period end: 31 August 2019 00:00
Orbit: 508 x 3263 km, 33.3° (Epoch: 20 August)

Date Brightness Start Highest point End Pass type
(mag) Time Alt. Az. Time Alt. Az. Time Alt. Az.
21 Aug 8.0 19:59:06 10° WSW 20:02:20 20° S 20:04:05 15° SSE visible
22 Aug 8.6 20:57:39 10° SW 20:58:50 13° SSW 20:58:50 13° SSW visible
23 Aug 8.2 19:42:49 10° WSW 19:46:25 20° SSW 19:49:00 12° SSE visible
24 Aug 8.6 20:41:52 10° SW 20:43:39 12° SSW 20:43:45 12° SSW visible
25 Aug 8.4 19:26:27 10° WSW 19:30:27 21° SSW 19:33:34 10° SSE visible
26 Aug 8.7 20:26:02 10° SW 20:27:35 12° SSW 20:28:42 11° SSW visible
27 Aug 8.7 19:09:57 10° WSW 19:14:26 22° SSW 19:17:48 10° SSE visible
28 Aug 9.0 20:10:10 10° SW 20:11:28 11° SSW 20:12:40 10° SSW visible
30 Aug 9.3 19:54:17 10° SW 19:55:16 10° SW 19:56:13 10° SSW visible
